Location: Campillo
(40.8621°N, 4.2488°W)
Time: 13:37:39
(UTC+00:00)

Cosmos 1633 Rocket - Visible Passes

Search period start: 21 September 2021 00:00
Search period end: 01 October 2021 00:00
Orbit: 608 x 622 km, 82.5° (Epoch: 20 September)

Date Brightness Start Highest point End Pass type
(mag) Time Alt. Az. Time Alt. Az. Time Alt. Az.
21 Sep 6.3 02:43:30 10° NE 02:44:34 11° ENE 02:45:38 10° E visible
21 Sep 2.9 04:18:26 10° NNW 04:22:51 68° W 04:27:13 10° S visible
22 Sep 5.6 02:57:50 10° NNE 03:01:00 19° ENE 03:03:39 12° ESE visible
22 Sep 3.6 04:34:50 10° NNW 04:38:54 36° W 04:40:32 27° SW visible
23 Sep 4.7 03:13:19 10° NNE 03:17:21 33° ENE 03:17:22 33° ENE visible
23 Sep 4.4 04:51:37 10° NW 04:54:18 20° WNW 04:54:18 20° WNW visible
24 Sep 4.4 03:29:11 10° N 03:31:50 34° NNE 03:31:50 34° NNE visible
25 Sep 5.0 03:45:18 10° NNW 03:46:41 20° NNW 03:46:41 20° NNW visible
26 Sep 5.6 04:01:41 10° NNW 04:01:46 11° NNW 04:01:46 11° NNW visible
